This demonstration page uses our WeatherBlox Daily Observations layout. Learn more.

Left ArrowRight Arrow

40.92945, -100.16068

Hourly Observations for September 21, 2020

Temp ( °F °C ) Dew Point ( °F °C ) Humidity (%) Winds ( mph kmh ) Pressure ( in mb ) Visibility ( mi km ) Precip ( " mm )
12:15 am 00:15 Clear 65 18.5 52 11.3 63 63 SSE 13 20 30.03 1017 7 11 0.00 0.00
12:35 am 00:35 Clear 64 18 52 11.2 65 65 SSE 12 19 30.04 1017 7 11 0.00 0.00
12:55 am 00:55 Clear 64 17.5 52 11.2 67 67 SSE 10 17 30.04 1017 7 11 0.00 0.00
1:15 am 01:15 Clear 63 17.2 52 11.2 68 68 SE 9 15 30.05 1017 7 11 0.00 0.00
1:35 am 01:35 Clear 62 16.9 52 11.1 69 69 SSE 9 15 30.06 1018 7 11 0.00 0.00
1:55 am 01:55 Clear 62 16.5 52 11.1 71 71 SSE 10 17 30.05 1018 7 11 0.00 0.00
2:15 am 02:15 Clear 62 16.5 52 11.1 71 71 SSE 9 15 30.05 1018 7 11 0.00 0.00
2:35 am 02:35 Clear 62 16.7 52 11.1 70 70 SSE 10 17 30.05 1018 7 11 0.00 0.00
2:55 am 02:55 Clear 62 16.5 52 11.1 71 71 SSE 9 15 30.05 1018 7 11 0.00 0.00
3:15 am 03:15 Clear 61 16.2 52 11.1 72 72 SSE 10 17 30.06 1018 7 11 0.00 0.00
3:35 am 03:35 Clear 61 16 52 11 72 72 SSE 10 17 30.06 1018 7 11 0.00 0.00
3:55 am 03:55 Clear 61 16 52 11 72 72 SSE 7 11 30.06 1018 7 11 0.00 0.00
4:15 am 04:15 Clear 61 16.1 52 11 72 72 SE 7 11 30.06 1018 7 11 0.00 0.00
4:35 am 04:35 Clear 61 16.2 52 11 71 71 ESE 6 9 30.06 1018 7 11 0.00 0.00
4:55 am 04:55 Clear 61 16.2 52 10.9 71 71 S 8 13 30.06 1018 7 11 0.00 0.00
5:15 am 05:15 Partly Cloudy with Nearby Thunderstorms 61 16.2 51 10.8 71 71 S 7 11 30.06 1018 7 11 0.00 0.00
5:35 am 05:35 Partly Cloudy 61 16.3 51 10.6 69 69 S 7 11 30.05 1018 7 11 0.00 0.00
5:55 am 05:55 Clear 61 16 51 10.5 70 70 S 9 15 30.06 1018 7 11 0.00 0.00
6:15 am 06:15 Clear 60 15.8 51 10.5 71 71 S 12 19 30.06 1018 7 11 0.00 0.00
6:35 am 06:35 Clear 60 15.6 51 10.3 71 71 S 13 20 30.06 1018 7 11 0.00 0.00
6:55 am 06:55 Clear 59 15 51 10.3 74 74 SSE 8 13 30.07 1018 7 11 0.00 0.00
7:15 am 07:15 Clear 58 14.3 50 10.2 77 77 S 7 11 30.07 1018 7 11 0.00 0.00
7:35 am 07:35 Sunny 58 14.5 50 10.2 76 76 SSE 7 11 30.08 1019 7 11 0.00 0.00
7:55 am 07:55 Sunny 57 14 50 10.2 78 78 SSE 8 13 30.08 1019 7 11 0.00 0.00
8:15 am 08:15 Sunny 57 14.1 50 10.2 78 78 SSE 5 7 30.08 1019 7 11 0.00 0.00
8:35 am 08:35 Sunny 58 14.5 51 10.5 77 77 Calm 30.11 1020 7 11 0.00 0.00
8:55 am 08:55 Sunny with Nearby Thunderstorms 59 14.9 51 10.4 75 75 Calm 30.12 1020 7 11 0.00 0.00
9:15 am 09:15 Sunny 60 15.6 51 10.5 72 72 SE 5 7 30.11 1020 7 11 0.00 0.00
9:35 am 09:35 Sunny 61 16.2 51 10.6 70 70 SSE 7 11 30.09 1019 7 11 0.00 0.00
9:55 am 09:55 Sunny 61 16.2 51 10.6 70 70 SSE 9 15 30.09 1019 7 11 0.00 0.00
10:15 am 10:15 Sunny 62 16.5 51 10.6 68 68 SSE 13 20 30.08 1019 7 11 0.00 0.00
10:35 am 10:35 Sunny 64 17.5 52 10.9 65 65 SSE 12 19 30.08 1019 7 11 0.00 0.00
10:55 am 10:55 Sunny with Nearby Thunderstorms 65 18.5 52 10.9 61 61 S 12 19 30.07 1018 7 11 0.00 0.00
11:15 am 11:15 Sunny 68 20 51 10.8 56 56 S 10 17 30.05 1018 7 11 0.00 0.00
11:35 am 11:35 Sunny 69 20.7 52 11 54 54 S 13 20 30.05 1017 7 11 0.00 0.00
11:55 am 11:55 Sunny 72 22.1 52 11.1 50 50 S 13 20 30.02 1017 7 11 0.00 0.00
12:15 pm 12:15 Sunny 74 23.4 52 11.2 46 46 SSE 14 22 30.00 1016 7 11 0.00 0.00
12:35 pm 12:35 Sunny 75 23.9 52 11.1 45 45 SSE 16 26 30.01 1016 7 11 0.00 0.00
12:55 pm 12:55 Sunny 75 24.1 52 11.1 44 44 SSE 14 22 30.00 1016 7 11 0.00 0.00
1:15 pm 13:15 Sunny 78 25.7 53 11.4 41 41 SSE 15 24 29.97 1015 7 11 0.00 0.00
1:35 pm 13:35 Sunny 80 26.6 52 11.1 38 38 S 15 24 29.97 1015 7 11 0.00 0.00
1:55 pm 13:55 Sunny 81 27.2 51 10.8 36 36 S 17 28 29.94 1014 7 11 0.00 0.00
2:15 pm 14:15 Sunny 82 27.7 52 11 35 35 SSE 20 31 29.93 1013 7 11 0.00 0.00
2:35 pm 14:35 Sunny 80 26.7 52 11.1 38 38 SSE 14 22 29.94 1014 7 11 0.00 0.00
2:55 pm 14:55 Sunny 82 27.8 52 11.1 35 35 SSE 15 24 29.92 1013 10 16 0.00 0.00
3:15 pm 15:15 Sunny 83 28.2 52 10.9 34 34 S 20 31 29.90 1013 7 11 0.00 0.00
3:35 pm 15:35 Sunny 84 28.7 51 10.5 32 32 S 16 26 29.90 1013 7 11 0.00 0.00
3:55 pm 15:55 Sunny 87 30.3 51 10.7 30 30 S 17 28 29.88 1012 7 11 0.00 0.00
4:15 pm 16:15 Sunny 85 29.7 51 10.3 30 30 SSE 20 31 29.88 1012 7 11 0.00 0.00
4:35 pm 16:35 Sunny 86 30.1 50 10.2 29 29 SSE 16 26 29.88 1012 7 11 0.00 0.00
4:55 pm 16:55 Sunny 86 30.2 51 10.3 29 29 SSE 16 26 29.87 1011 7 11 0.00 0.00
5:15 pm 17:15 Sunny 87 30.4 50 10.1 28 28 SSE 16 26 29.87 1011 7 11 0.00 0.00
5:35 pm 17:35 Sunny 86 29.9 50 9.8 29 29 SSE 16 26 29.87 1012 7 11 0.00 0.00
5:55 pm 17:55 Sunny 85 29.5 50 9.9 30 30 SSE 18 30 29.87 1012 10 16 0.00 0.00
6:15 pm 18:15 Sunny 83 28.6 49 9.3 30 30 S 17 28 29.88 1012 10 16 0.00 0.00
6:35 pm 18:35 Sunny 82 27.9 49 9.6 32 32 SSE 14 22 29.90 1012 10 16 0.00 0.00
6:55 pm 18:55 Sunny 81 27 51 10.6 36 36 SSE 14 22 29.90 1013 10 16 0.00 0.00
7:15 pm 19:15 Sunny 79 26 52 11.2 40 40 SSE 13 20 29.91 1013 10 16 0.00 0.00
7:35 pm 19:35 Sunny 76 24.6 52 11.1 43 43 SSE 10 17 29.93 1014 10 16 0.00 0.00
7:55 pm 19:55 Clear 74 23.6 52 11.2 46 46 SSE 12 19 29.94 1014 10 16 0.00 0.00
8:15 pm 20:15 Clear 74 23.1 52 11.2 47 47 SSE 13 20 29.95 1014 10 16 0.00 0.00
8:35 pm 20:35 Clear 72 22.3 52 11.2 50 50 SSE 10 17 29.96 1015 10 16 0.00 0.00
8:55 pm 20:55 Clear 71 21.9 52 11.1 50 50 SSE 12 19 29.97 1015 10 16 0.00 0.00
9:15 pm 21:15 Clear 70 21.3 52 10.9 52 52 SSE 9 15 29.98 1015 10 16 0.00 0.00
9:35 pm 21:35 Clear 69 20.5 51 10.8 54 54 SSE 9 15 30.00 1016 10 16 0.00 0.00
9:55 pm 21:55 Clear 69 20.5 51 10.7 54 54 SSE 12 19 30.01 1016 10 16 0.00 0.00
10:15 pm 22:15 Clear 68 19.9 51 10.7 56 56 SSE 9 15 30.01 1016 10 16 0.00 0.00
10:35 pm 22:35 Clear 67 19.5 52 11 58 58 SSE 12 19 30.02 1016 10 16 0.00 0.00
10:55 pm 22:55 Clear 66 19 52 11.1 60 60 SSE 10 17 30.02 1017 10 16 0.00 0.00
11:15 pm 23:15 Clear 65 18.6 52 11.2 62 62 SSE 8 13 30.03 1017 10 16 0.00 0.00
11:35 pm 23:35 Clear 65 18.2 52 11.2 64 64 SSE 9 15 30.03 1017 10 16 0.00 0.00
11:55 pm 23:55 Clear 66 19 52 11.1 60 60 S 10 17 30.03 1017 10 16 0.00 0.00

Powered by AerisWeather